Location: Newark
(47.5833°N, 8.1500°E)
Time: 02:49:24
(UTC+00:00)

Vanguard 1 - Pass Details

Date: 05 November 2020
Orbit: 650 x 3833 km, 34.2° (Epoch: 26 November)

Event Time Altitude Azimuth Distance (km) Brightness Sun altitude
Rises 07:23:34 0° 184° (S) 5,866 14.5 8.8°
Reaches altitude 10° 07:28:42 10° 168° (SSE) 5,388 14.7 9.5°
Maximum altitude 07:39:28 20° 129° (SE) 5,429 16.4 10.9°
Drops below altitude 10° 07:52:44 10° 92° (E) 6,859 15.3 12.7°
Sets 08:00:37 0° 79° (ENE) 7,980 15.2 13.6°
